Clarksville, Illinois
Current Conditions -  °F | °C
As of 11:55 PM on Tuesday 21 Oct 2014 (Local Time) from KPRG Reporting Station
Clear Clear  
Wind Chill: 44°   Ceiling: Unl
Heat Index: 44°   Visibility: 10mi
Dew Point: 40°   Wind: 0mph
Humidity: 87%   Direction: NA
Pressure: 30.24"   Gusts: NA
Location:  39.4361°N, 87.7043°W
Report Text: KPRG 220455Z AUTO 00000KT 10SM CLR 06/04 A3024 RMK AO2 T00640044
Loading
Personal Weather Stations






























Interactive Weather Map
Tropical Storm Tracking
New forecast layout! Learn more

10-Day Weather Forecast

Advertisements
Track Severe Weather on mobile